Temp
-11 -11 -12 -12 -12 -12 -12 -13 -12 -12 -13 -13 -12 -11 -11 -12 -11 -11 -12 -12 -13 -15 -16 -17 -17 -18 -19 -20 -20 -20 -20 -19 -19 -18 -18 -18 -18 -19 -19 -19 -19 -19 -18 -18 -17 -17 -17
-11 -12 -12 -12 -12 -12 -13 -13 -13 -13 -13 -13 -13 -12 -12 -12 -12 -12 -12 -12 -14 -15 -16 -17 -17 -18 -19 -20 -20 -20 -20 -20 -19 -19 -19 -18 -18 -19 -19 -19 -19 -19 -19 -17 -17 -17 -16
-12 -12 -12 -12 -12 -13 -13 -13 -13 -13 -13 -13 -13 -12 -12 -12 -12 -12 -12 -13 -14 -16 -17 -18 -18 -19 -19 -20 -20 -20 -20 -20 -19 -19 -19 -19 -19 -18 -19 -18 -19 -19 -18 -17 -17 -17 -16
-12 -12 -12 -12 -12 -12 -13 -13 -13 -13 -13 -13 -13 -13 -12 -12 -12 -13 -13 -14 -15 -16 -17 -18 -18 -19 -19 -19 -20 -20 -20 -20 -19 -19 -19 -19 -19 -19 -18 -18 -19 -18 -18 -17 -17 -17 -17
-12 -12 -12 -12 -12 -12 -13 -13 -13 -13 -13 -13 -13 -13 -12 -12 -13 -13 -14 -14 -15 -17 -18 -19 -19 -19 -19 -19 -20 -20 -20 -20 -20 -20 -19 -19 -19 -19 -19 -19 -19 -18 -17 -17 -17 -17 -18
-12 -12 -12 -12 -12 -12 -13 -13 -12 -13 -13 -13 -13 -13 -12 -12 -13 -13 -14 -15 -16 -17 -18 -19 -19 -19 -19 -19 -20 -20 -20 -20 -20 -19 -19 -19 -19 -19 -19 -19 -19 -18 -18 -18 -17 -17 -18
-12 -12 -12 -12 -12 -12 -13 -13 -12 -12 -13 -13 -13 -13 -12 -12 -13 -13 -14 -15 -16 -16 -18 -19 -19 -19 -19 -19 -19 -19 -20 -20 -20 -19 -19 -19 -19 -19 -20 -20 -20 -20 -19 -20 -19 -18 -18
-12 -12 -12 -12 -12 -12 -12 -13 -12 -12 -13 -13 -13 -12 -12 -12 -13 -13 -14 -14 -15 -16 -17 -18 -19 -19 -19 -19 -19 -19 -19 -19 -19 -19 -19 -19 -19 -19 -19 -20 -19 -19 -20 -19 -18 -18 -18
-13 -12 -12 -12 -12 -12 -13 -13 -12 -12 -12 -12 -12 -12 -12 -12 -13 -13 -14 -14 -15 -16 -17 -18 -19 -19 -19 -19 -19 -19 -19 -19 -19 -19 -19 -19 -19 -19 -19 -20 -20 -19 -20 -18 -18 -18 -18
-13 -13 -12 -12 -12 -12 -12 -13 -13 -12 -12 -12 -12 -12 -12 -12 -12 -13 -13 -14 -15 -16 -17 -18 -18 -19 -19 -20 -19 -19 -20 -20 -20 -19 -19 -19 -19 -20 -20 -20 -20 -19 -19 -18 -18 -18 -17
-13 -13 -13 -12 -12 -12 -12 -13 -13 -12 -12 -12 -12 -12 -12 -12 -12 -13 -13 -14 -15 -16 -17 -18 -19 -19 -19 -19 -20 -20 -20 -20 -20 -20 -20 -20 -21 -20 -20 -20 -20 -19 -19 -19 -18 -18 -17
-14 -13 -13 -13 -13 -12 -12 -13 -13 -12 -12 -12 -12 -12 -12 -12 -12 -13 -13 -14 -14 -15 -17 -18 -18 -19 -19 -19 -20 -20 -20 -20 -20 -20 -20 -21 -21 -21 -20 -20 -20 -19 -19 -18 -18 -17 -16
-14 -14 -13 -13 -13 -13 -13 -12 -13 -13 -12 -12 -12 -12 -12 -12 -13 -13 -13 -13 -14 -15 -16 -17 -18 -19 -19 -19 -19 -20 -20 -20 -20 -20 -21 -21 -21 -21 -20 -20 -20 -19 -19 -18 -17 -16 -16
-14 -14 -14 -13 -13 -13 -13 -13 -13 -13 -12 -12 -12 -12 -12 -13 -13 -13 -13 -13 -13 -14 -15 -16 -17 -18 -18 -19 -19 -20 -20 -20 -20 -20 -20 -20 -20 -20 -20 -19 -19 -18 -17 -16 -16 -16 -15
-14 -14 -14 -14 -13 -13 -13 -13 -13 -13 -13 -12 -12 -12 -12 -13 -13 -13 -13 -13 -13 -14 -14 -15 -16 -17 -18 -18 -18 -18 -19 -19 -19 -19 -19 -19 -19 -19 -18 -18 -17 -17 -16 -16 -16 -15 -14
-14 -14 -14 -14 -14 -13 -13 -13 -13 -13 -13 -13 -12 -12 -12 -13 -13 -13 -13 -13 -13 -13 -14 -14 -15 -16 -17 -17 -17 -17 -18 -18 -18 -19 -18 -18 -18 -17 -17 -17 -16 -16 -16 -15 -15 -14 -14
-14 -14 -14 -14 -14 -14 -13 -13 -13 -13 -13 -13 -13 -12 -12 -13 -13 -13 -13 -13 -13 -13 -13 -14 -14 -15 -16 -16 -17 -17 -17 -17 -17 -18 -18 -18 -17 -16 -16 -16 -15 -15 -15 -14 -14 -13 -12
-14 -14 -14 -14 -14 -14 -14 -14 -13 -13 -13 -13 -13 -13 -13 -13 -13 -13 -13 -13 -13 -13 -13 -14 -14 -14 -15 -15 -16 -16 -16 -16 -16 -16 -17 -17 -17 -16 -16 -16 -15 -15 -14 -13 -13 -12 -12
-14 -14 -14 -14 -14 -14 -14 -14 -14 -14 -14 -13 -13 -13 -13 -13 -13 -13 -13 -13 -13 -13 -13 -13 -14 -14 -14 -14 -15 -15 -16 -16 -16 -16 -16 -16 -16 -17 -16 -16 -15 -15 -14 -13 -13 -12 -12
-15 -14 -14 -15 -14 -14 -14 -15 -14 -14 -14 -13 -13 -13 -13 -13 -13 -13 -13 -13 -13 -13 -13 -13 -13 -13 -14 -14 -14 -14 -15 -15 -15 -15 -15 -15 -15 -15 -15 -15 -15 -15 -14 -14 -13 -13 -13
-15 -15 -15 -15 -15 -15 -15 -15 -15 -14 -14 -14 -14 -14 -14 -13 -13 -13 -13 -13 -13 -13 -13 -13 -13 -13 -13 -13 -13 -14 -14 -14 -14 -15 -15 -15 -14 -14 -14 -14 -14 -14 -14 -14 -13 -13 -13
-16 -16 -15 -15 -15 -15 -15 -15 -15 -15 -15 -15 -14 -14 -14 -14 -14 -13 -13 -13 -13 -13 -13 -13 -13 -13 -13 -13 -13 -13 -13 -13 -13 -13 -14 -14 -14 -14 -14 -14 -14 -13 -13 -13 -13 -14 -13
-16 -16 -16 -15 -15 -15 -15 -15 -15 -15 -15 -15 -14 -14 -14 -14 -14 -14 -13 -13 -13 -13 -13 -13 -13 -13 -13 -13 -13 -13 -13 -13 -13 -13 -13 -13 -13 -13 -14 -13 -14 -14 -14 -14 -14 -13 -13
-16 -16 -16 -16 -16 -16 -16 -15 -15 -15 -15 -15 -14 -14 -14 -13 -14 -14 -13 -13 -13 -13 -13 -13 -13 -13 -13 -13 -13 -13 -13 -13 -13 -13 -13 -13 -12 -12 -12 -12 -12 -12 -12 -13 -13 -13 -13
-17 -17 -17 -16 -16 -16 -15 -16 -15 -15 -16 -15 -15 -15 -14 -14 -14 -14 -14 -14 -13 -13 -13 -13 -13 -13 -13 -13 -14 -13 -13 -13 -13 -13 -13 -13 -12 -12 -12 -12 -12 -12 -12 -12 -12 -12 -13
-17 -17 -16 -16 -16 -16 -16 -15 -15 -15 -16 -15 -15 -15 -14 -14 -14 -14 -14 -14 -14 -14 -14 -14 -14 -14 -13 -13 -13 -13 -13 -13 -13 -13 -13 -13 -13 -13 -13 -12 -12 -12 -13 -12 -12 -12 -13
-16 -17 -17 -16 -16 -16 -16 -16 -16 -16 -16 -16 -15 -15 -15 -15 -14 -14 -14 -15 -15 -14 -14 -14 -14 -14 -14 -13 -13 -13 -13 -13 -13 -13 -14 -14 -13 -13 -13 -12 -12 -13 -12 -12 -13 -13 -13
-17 -17 -17 -17 -17 -16 -16 -16 -16 -16 -16 -16 -16 -15 -15 -15 -15 -15 -15 -15 -15 -15 -14 -14 -14 -14 -14 -14 -14 -14 -13 -14 -14 -13 -14 -14 -14 -14 -14 -14 -13 -13 -13 -13 -13 -12 -12
-17 -18 -17 -17 -17 -17 -16 -16 -16 -16 -16 -16 -16 -15 -15 -15 -15 -15 -15 -15 -15 -15 -15 -14 -15 -15 -15 -14 -14 -14 -14 -14 -14 -14 -15 -14 -14 -14 -14 -14 -14 -13 -13 -13 -13 -13 -13
Height
5822 5820 5818 5814 5810 5807 5803 5800 5795 5790 5784 5779 5773 5768 5763 5756 5748 5738 5729 5718 5706 5694 5684 5675 5667 5658 5649 5645 5643 5642 5641 5643 5646 5646 5646 5650 5652 5658 5662 5670 5677 5686 5697 5700 5710 5726 5738
5821 5819 5817 5814 5810 5807 5803 5799 5794 5789 5783 5778 5771 5766 5760 5753 5745 5736 5726 5716 5705 5693 5681 5672 5664 5656 5649 5645 5643 5642 5642 5643 5645 5646 5644 5647 5650 5656 5658 5665 5673 5681 5687 5702 5716 5725 5735
5821 5819 5816 5813 5811 5807 5802 5798 5793 5788 5783 5777 5770 5763 5759 5752 5743 5734 5724 5714 5703 5691 5680 5671 5664 5657 5652 5649 5646 5643 5643 5644 5645 5647 5646 5649 5653 5657 5659 5667 5674 5679 5690 5702 5714 5722 5735
5821 5818 5816 5813 5810 5807 5802 5797 5792 5788 5782 5776 5770 5763 5758 5751 5743 5734 5723 5713 5703 5691 5680 5671 5665 5659 5654 5651 5649 5647 5645 5644 5646 5647 5648 5652 5656 5657 5663 5667 5674 5680 5689 5697 5709 5719 5732
5819 5818 5815 5813 5810 5806 5802 5796 5792 5787 5782 5776 5770 5763 5758 5752 5744 5735 5725 5714 5704 5693 5681 5673 5668 5661 5657 5654 5650 5648 5647 5646 5646 5648 5650 5653 5657 5660 5664 5669 5676 5682 5690 5698 5707 5717 5726
5818 5817 5814 5812 5809 5806 5802 5796 5791 5787 5782 5776 5770 5764 5758 5752 5745 5736 5727 5716 5706 5698 5687 5676 5669 5664 5658 5655 5652 5649 5648 5647 5648 5650 5653 5655 5659 5663 5666 5670 5677 5682 5690 5698 5706 5717 5724
5817 5815 5813 5811 5809 5806 5802 5797 5792 5787 5782 5776 5771 5765 5758 5752 5746 5738 5729 5720 5713 5701 5690 5681 5670 5663 5659 5656 5655 5652 5652 5651 5652 5654 5654 5657 5660 5665 5667 5671 5677 5684 5691 5699 5704 5712 5722
5814 5813 5811 5809 5807 5805 5801 5796 5792 5787 5782 5777 5772 5766 5759 5753 5747 5739 5731 5722 5713 5705 5695 5684 5675 5666 5662 5660 5660 5657 5655 5655 5655 5656 5656 5661 5662 5665 5670 5674 5679 5684 5692 5697 5705 5713 5722
5812 5810 5809 5807 5805 5804 5800 5796 5792 5788 5783 5778 5773 5768 5762 5755 5748 5741 5733 5725 5716 5708 5701 5689 5681 5675 5669 5667 5664 5662 5660 5659 5659 5659 5660 5662 5665 5668 5671 5676 5680 5688 5693 5698 5707 5714 5721
5809 5808 5806 5805 5803 5802 5799 5796 5792 5788 5783 5779 5775 5770 5764 5757 5752 5743 5736 5728 5720 5712 5704 5696 5688 5682 5676 5670 5668 5665 5664 5664 5663 5663 5664 5666 5667 5669 5673 5678 5683 5687 5692 5701 5708 5716 5723
5808 5806 5804 5803 5801 5800 5798 5794 5791 5788 5784 5781 5776 5772 5766 5759 5753 5746 5740 5732 5724 5717 5709 5702 5694 5686 5681 5676 5673 5669 5666 5666 5666 5666 5668 5668 5669 5671 5675 5681 5686 5691 5696 5704 5711 5718 5725
5805 5804 5802 5801 5799 5798 5796 5793 5790 5787 5784 5781 5778 5773 5769 5763 5757 5750 5743 5736 5730 5724 5714 5708 5702 5695 5689 5683 5678 5673 5670 5669 5669 5670 5670 5672 5674 5678 5681 5686 5691 5696 5701 5707 5715 5722 5727
5802 5801 5799 5798 5796 5795 5794 5792 5789 5786 5783 5780 5778 5775 5771 5766 5761 5754 5747 5741 5737 5726 5720 5714 5708 5702 5696 5691 5687 5682 5678 5675 5674 5676 5677 5678 5680 5683 5687 5691 5694 5701 5704 5713 5720 5726 5730
5799 5798 5797 5795 5793 5792 5792 5791 5788 5785 5782 5780 5777 5775 5773 5768 5764 5758 5752 5746 5740 5733 5726 5720 5714 5708 5703 5699 5695 5691 5688 5684 5682 5683 5682 5685 5688 5691 5694 5698 5703 5707 5715 5721 5725 5729 5734
5795 5795 5794 5792 5791 5789 5788 5788 5787 5785 5782 5779 5777 5775 5773 5769 5766 5761 5756 5752 5745 5739 5732 5726 5721 5715 5710 5706 5703 5699 5696 5693 5691 5691 5692 5692 5695 5698 5701 5705 5710 5714 5721 5725 5727 5732 5738
5791 5790 5790 5789 5788 5786 5785 5784 5784 5783 5780 5778 5776 5774 5773 5770 5767 5763 5759 5755 5749 5744 5738 5732 5728 5722 5718 5714 5711 5707 5705 5702 5700 5699 5698 5699 5701 5705 5708 5713 5718 5722 5727 5729 5731 5736 5742
5785 5785 5785 5785 5784 5783 5782 5781 5781 5781 5779 5777 5775 5773 5772 5769 5767 5764 5761 5757 5753 5748 5743 5738 5733 5728 5725 5722 5718 5716 5714 5712 5709 5708 5706 5705 5707 5710 5714 5719 5722 5725 5727 5729 5733 5739 5744
5778 5779 5779 5779 5780 5779 5779 5778 5777 5776 5776 5775 5773 5772 5770 5768 5767 5764 5761 5759 5756 5751 5747 5743 5738 5735 5731 5728 5726 5723 5721 5719 5718 5717 5717 5716 5715 5716 5718 5720 5723 5724 5727 5731 5735 5741 5744
5771 5771 5772 5773 5774 5774 5774 5774 5773 5772 5772 5771 5770 5769 5768 5766 5764 5763 5761 5758 5757 5754 5750 5747 5743 5739 5736 5733 5731 5729 5727 5725 5724 5724 5725 5725 5724 5723 5723 5724 5725 5726 5729 5732 5736 5739 5742
5761 5763 5764 5765 5767 5767 5768 5768 5768 5767 5767 5767 5767 5765 5764 5763 5761 5760 5759 5758 5755 5754 5752 5749 5747 5743 5740 5738 5735 5733 5733 5732 5730 5729 5728 5729 5730 5731 5731 5730 5730 5730 5731 5733 5735 5737 5739
5752 5754 5755 5756 5757 5760 5760 5761 5761 5761 5761 5761 5760 5761 5759 5758 5758 5757 5756 5755 5754 5752 5750 5749 5747 5745 5744 5741 5738 5737 5735 5734 5734 5733 5732 5731 5731 5731 5732 5733 5734 5734 5735 5736 5738 5738 5740
5741 5743 5745 5747 5749 5750 5751 5752 5753 5753 5753 5753 5753 5753 5754 5753 5752 5752 5751 5752 5751 5750 5749 5747 5746 5745 5743 5742 5741 5739 5738 5736 5735 5734 5734 5733 5733 5733 5732 5732 5733 5734 5735 5736 5737 5737 5737
5728 5731 5733 5736 5738 5739 5739 5741 5743 5744 5744 5744 5744 5745 5746 5747 5745 5746 5746 5746 5746 5746 5746 5744 5744 5742 5741 5741 5740 5739 5738 5737 5736 5735 5734 5733 5733 5732 5731 5731 5732 5733 5732 5732 5732 5731 5731
5714 5718 5720 5723 5726 5727 5727 5728 5730 5732 5734 5735 5736 5736 5737 5737 5736 5738 5739 5740 5740 5740 5740 5740 5739 5738 5738 5737 5737 5736 5736 5736 5735 5734 5733 5732 5731 5731 5730 5730 5730 5730 5729 5728 5727 5725 5723
5700 5704 5707 5710 5713 5715 5716 5715 5717 5719 5720 5723 5724 5727 5727 5727 5728 5730 5731 5732 5733 5734 5735 5735 5734 5734 5733 5732 5732 5733 5732 5732 5731 5730 5729 5728 5727 5727 5726 5726 5725 5727 5725 5722 5719 5718 5716
5684 5689 5693 5696 5699 5702 5704 5704 5705 5706 5708 5710 5712 5716 5718 5719 5720 5721 5723 5724 5725 5726 5727 5728 5728 5728 5727 5727 5726 5726 5726 5726 5726 5725 5724 5723 5722 5722 5720 5718 5717 5720 5717 5715 5713 5712 5708
5668 5673 5679 5683 5685 5690 5692 5693 5694 5695 5697 5698 5701 5704 5707 5709 5710 5712 5714 5716 5717 5718 5719 5720 5721 5721 5720 5719 5719 5719 5718 5719 5718 5718 5717 5715 5713 5713 5711 5710 5709 5708 5704 5702 5701 5701 5696
5655 5660 5665 5669 5672 5676 5680 5683 5684 5686 5687 5690 5691 5693 5696 5699 5701 5703 5705 5706 5708 5708 5708 5712 5711 5712 5711 5711 5710 5710 5708 5709 5709 5708 5707 5706 5705 5705 5703 5701 5700 5696 5693 5692 5689 5685 5683
5642 5647 5652 5656 5660 5664 5667 5671 5674 5676 5677 5680 5682 5684 5685 5687 5691 5692 5694 5695 5697 5698 5698 5698 5700 5699 5699 5699 5699 5698 5698 5698 5699 5698 5698 5695 5695 5693 5694 5690 5687 5683 5680 5676 5673 5672 5669
Wind_Speed
9 12 16 20 24 24 22 22 24 25 27 29 28 26 27 32 37 43 44 47 50 49 42 33 32 39 27 18 8 4 4 12 9 7 12 16 24 30 31 36 35 40 52 62 58 61 56
8 11 15 19 23 24 23 21 24 25 28 31 29 26 26 33 38 43 44 47 47 47 43 31 30 29 20 14 4 2 3 4 5 3 10 10 22 28 24 40 38 43 55 57 52 57 54
7 10 14 17 21 24 24 22 24 25 27 31 30 28 26 32 38 43 45 46 47 48 42 28 26 22 15 12 3 2 3 2 5 6 9 17 21 16 33 29 36 38 47 46 49 52 59
8 11 13 16 20 23 25 23 23 25 27 30 31 29 26 31 37 42 46 46 46 46 42 26 22 20 16 12 6 3 3 2 3 12 13 19 17 23 26 29 35 38 43 44 46 49 56
10 12 13 16 19 22 24 24 23 25 27 30 31 31 28 30 36 40 45 44 44 45 42 25 21 19 16 15 12 7 4 1 1 12 16 14 16 15 25 26 33 36 38 40 40 45 49
13 12 13 16 19 22 24 23 22 24 27 29 30 30 29 29 34 38 43 40 42 42 40 31 25 22 14 12 11 7 5 7 10 9 16 9 16 16 13 20 29 30 32 36 37 36 39
16 15 13 14 17 22 23 23 22 23 25 27 29 30 29 29 32 36 40 40 37 42 40 36 34 21 20 10 10 11 13 10 12 10 10 16 16 12 15 16 21 22 26 25 29 35 41
16 15 14 14 15 19 22 23 22 23 24 25 27 29 30 29 31 35 38 40 37 38 38 37 38 26 21 16 14 13 11 10 10 8 9 10 13 14 17 20 19 23 21 27 31 37 40
16 15 13 14 14 16 20 21 21 22 24 24 26 28 29 29 30 32 36 39 36 35 35 37 37 29 24 19 16 15 11 11 13 15 15 12 9 14 20 25 24 22 23 29 31 37 37
13 14 12 13 13 15 17 19 19 20 22 22 23 26 28 29 30 33 34 36 36 34 36 36 35 33 28 20 14 9 9 6 4 12 8 5 6 22 20 28 28 32 27 28 30 33 38
13 13 13 12 12 14 15 17 17 18 18 19 21 24 26 28 31 33 34 36 37 33 34 33 32 34 32 28 19 13 8 5 8 9 7 7 15 22 23 24 26 26 22 23 19 30 36
15 15 14 13 12 13 14 15 16 15 16 16 18 21 24 26 29 32 35 36 35 34 31 30 29 30 32 28 25 20 15 10 11 10 9 14 17 20 22 23 24 22 21 20 24 32 32
15 17 17 14 13 13 13 14 13 14 14 14 16 18 20 23 26 29 33 36 35 36 32 29 27 28 30 30 23 22 20 20 16 15 16 17 17 21 23 25 25 22 23 24 28 30 23
18 18 19 17 14 14 14 15 14 13 12 13 14 15 16 19 22 26 29 33 36 37 34 29 27 25 28 27 26 21 19 19 22 21 22 20 22 25 25 24 25 23 21 26 26 22 20
20 20 19 19 17 16 15 16 16 13 14 13 13 13 14 16 18 21 25 27 32 36 37 33 27 26 26 26 26 23 20 19 21 23 24 27 25 26 26 26 25 25 25 25 23 23 18
25 23 21 19 21 18 18 17 17 15 14 14 12 12 12 12 14 17 20 23 27 30 34 35 32 28 24 24 24 24 22 18 17 19 24 27 28 26 25 23 24 24 22 23 22 21 15
28 28 25 23 19 21 20 19 19 18 16 14 13 12 11 10 11 13 15 18 22 25 28 31 33 31 26 23 21 22 22 19 18 16 18 23 25 27 27 26 25 24 23 22 19 16 11
33 32 30 29 25 21 22 22 21 21 20 17 16 14 12 12 11 11 11 14 16 20 23 24 27 30 30 27 22 19 18 18 17 16 13 14 20 22 26 27 26 24 23 20 17 14 12
38 37 35 34 31 26 22 24 24 23 23 22 20 19 17 15 14 13 10 10 12 15 17 19 21 23 24 25 24 21 17 16 14 14 11 9 10 12 18 20 22 21 20 19 18 16 15
43 42 39 39 37 33 30 25 28 27 26 27 24 23 23 21 18 16 13 11 9 10 13 15 16 17 18 19 21 22 21 15 12 13 11 10 7 8 12 10 12 15 19 20 20 22 22
47 46 46 45 44 40 38 33 31 32 30 29 29 27 26 24 23 19 17 14 11 9 8 9 12 13 14 14 15 15 15 16 15 12 9 8 8 7 5 2 3 8 10 12 14 18 19
54 54 52 47 47 45 43 41 38 37 34 32 32 31 29 29 27 23 19 18 14 12 11 9 9 11 12 11 12 11 11 12 12 13 11 8 5 3 3 3 2 1 4 7 11 15 16
58 57 56 55 50 48 46 45 42 40 41 40 37 36 33 31 32 27 24 21 18 16 14 12 11 10 11 12 12 11 10 9 9 8 9 11 10 8 8 8 7 7 12 13 14 17 19
63 61 60 56 49 51 49 50 48 45 45 44 42 38 37 33 34 33 28 26 24 21 18 17 17 17 16 16 15 15 14 13 13 13 11 12 12 12 13 14 14 14 17 21 24 26 29
67 66 67 61 52 52 49 47 46 48 50 49 47 40 36 33 33 35 33 30 29 27 26 25 24 23 24 25 23 21 20 19 18 17 18 18 18 20 20 20 22 20 22 26 29 31 33
71 69 65 62 55 52 51 45 43 45 46 46 47 43 37 32 32 34 36 34 32 31 30 30 29 28 29 30 30 29 27 25 25 23 22 24 25 25 26 28 30 27 29 32 34 36 37
62 63 64 61 57 49 44 42 40 39 38 36 38 40 36 33 32 34 36 36 35 35 34 33 34 34 34 35 35 35 34 32 31 28 26 28 30 30 31 34 35 34 38 40 42 44 45
47 49 50 46 49 48 43 40 37 37 36 36 36 37 36 35 34 35 36 37 39 39 39 36 37 37 39 39 40 40 40 38 36 36 34 34 36 36 36 37 39 41 44 45 48 48 48
47 46 46 46 50 50 48 45 42 40 40 39 39 40 39 39 38 39 40 41 41 42 43 43 41 41 42 43 44 46 45 45 43 43 39 41 40 41 41 44 45 47 48 50 51 51 53
Wind_Direction
17 13 12 14 11 8 358 352 351 351 352 349 344 343 342 343 348 351 350 351 351 348 345 341 340 337 341 334 323 295 264 221 230 253 221 226 211 211 211 205 215 209 203 205 203 197 195
6 7 7 9 7 6 360 354 353 354 354 353 351 348 348 351 353 354 353 353 352 352 349 344 347 348 4 7 345 53 59 123 203 215 227 246 209 206 201 194 204 198 198 201 203 201 192
352 359 2 3 1 3 1 358 354 356 357 355 355 353 355 355 356 355 354 354 354 356 356 349 355 7 23 7 2 83 82 119 178 179 208 184 185 167 186 198 197 195 198 195 201 205 196
337 345 352 358 355 357 1 359 356 354 356 355 355 358 355 357 359 357 356 355 357 358 359 360 1 12 14 17 32 37 16 22 176 176 180 184 208 197 189 183 188 191 192 195 199 204 199
320 330 339 348 350 352 360 359 356 354 355 356 357 0 357 357 0 0 359 356 358 2 2 3 3 7 8 13 23 6 340 65 141 163 170 183 183 179 183 187 191 193 193 195 201 200 204
305 314 326 336 343 346 355 359 358 354 356 357 358 2 360 358 2 3 3 360 0 5 9 10 11 11 7 9 16 36 58 87 98 144 160 185 181 197 187 185 192 192 192 199 200 200 195
304 307 313 324 335 341 351 358 359 357 356 357 359 1 2 0 3 7 7 5 3 6 12 15 12 11 15 30 58 66 85 85 102 127 170 164 173 180 181 167 181 186 192 195 198 189 186
304 308 308 311 325 337 345 356 359 358 356 357 359 4 7 5 5 9 9 10 11 11 14 17 20 27 33 50 42 51 73 96 107 104 168 164 165 174 177 158 174 168 177 186 186 184 186
305 306 303 302 314 330 339 353 359 356 354 360 3 9 11 11 9 11 12 13 15 16 19 21 24 34 37 35 46 51 68 103 88 101 118 169 172 174 173 162 159 143 180 193 182 183 191
309 307 300 294 304 319 333 348 357 355 351 359 8 13 15 17 16 15 15 16 18 19 23 27 28 26 31 24 22 31 50 81 81 130 148 167 194 155 164 164 162 164 183 182 178 188 190
313 312 303 294 292 306 324 339 354 356 347 354 6 13 16 21 20 20 19 19 20 23 28 33 31 27 25 31 39 40 36 91 109 150 154 144 156 155 154 158 162 158 169 165 180 191 183
313 316 311 298 287 293 312 329 348 354 347 342 354 7 12 19 22 23 23 22 22 28 35 37 38 38 33 32 36 39 50 83 106 150 135 128 143 151 148 154 156 147 149 156 185 186 177
306 314 314 303 288 285 299 314 337 345 348 336 339 355 8 14 19 24 25 25 23 28 34 37 43 44 43 42 43 51 63 82 94 124 117 122 136 132 138 138 134 142 138 170 171 173 157
294 306 314 307 293 281 289 301 318 336 339 338 333 341 357 8 14 21 27 26 26 28 30 35 42 46 48 50 48 54 64 82 97 108 111 116 124 128 126 129 131 132 155 167 151 140 139
282 294 305 310 299 281 279 290 301 321 330 328 331 334 345 359 7 18 25 25 29 30 32 32 37 45 50 53 54 52 63 80 95 103 108 113 118 121 122 127 131 140 153 148 134 135 139
277 283 292 303 305 291 278 279 288 302 318 325 320 323 332 348 1 12 22 23 29 31 33 35 35 41 50 56 58 59 61 78 97 113 117 118 119 116 119 126 134 137 140 137 130 132 139
273 280 285 291 300 297 286 279 281 289 300 315 315 310 316 328 349 3 11 20 26 31 33 34 36 40 45 53 61 64 64 69 87 98 115 123 128 128 129 135 144 143 141 137 134 145 160
270 275 281 284 287 295 290 283 280 282 287 295 310 304 293 302 317 336 355 7 19 27 30 35 37 38 42 49 55 64 71 79 83 88 86 113 137 146 150 154 153 149 148 143 144 158 176
267 271 275 280 282 285 287 285 281 279 284 289 295 301 287 282 290 305 324 347 0 12 20 24 33 39 41 43 50 56 66 83 90 96 102 113 143 165 167 164 161 161 160 163 172 184 198
264 268 273 278 280 280 283 284 282 278 279 283 288 292 293 280 279 285 298 311 330 348 358 7 15 25 36 43 45 44 49 61 79 98 110 117 141 168 164 164 186 188 184 189 196 205 210
263 266 268 272 278 279 281 281 280 275 276 278 285 287 287 284 274 273 281 286 300 312 332 350 355 3 11 18 28 41 45 43 47 61 80 99 118 117 114 135 214 225 231 234 238 244 248
258 263 263 267 270 273 273 273 273 273 270 270 278 283 284 284 271 262 267 275 281 289 298 313 328 346 350 355 357 5 12 18 25 22 18 32 45 80 114 116 118 226 263 268 269 269 264
255 259 265 266 269 270 272 268 268 267 269 271 275 279 283 278 272 259 256 259 264 271 278 287 292 313 327 335 337 333 330 329 334 341 344 340 338 331 311 315 313 297 301 293 285 282 281
257 259 261 264 268 268 274 268 264 263 263 267 270 275 281 275 268 255 249 252 257 260 262 268 274 285 295 304 314 318 315 311 305 305 302 297 293 292 293 294 292 297 294 289 285 284 284
255 258 261 262 265 266 271 270 261 262 261 263 265 271 275 267 263 258 250 248 253 257 264 267 269 276 285 293 298 305 304 301 295 294 295 292 292 292 290 286 295 294 290 287 287 286 285
257 257 260 264 262 267 265 265 259 259 265 265 264 265 266 261 256 255 253 252 254 258 264 269 272 276 281 284 289 294 296 297 295 293 293 292 292 292 293 293 297 298 292 289 288 288 285
256 254 256 259 261 259 258 258 256 260 266 268 259 257 256 255 255 254 254 255 259 262 265 268 276 279 282 285 288 291 291 295 293 290 286 288 291 291 291 294 298 298 294 296 296 294 295
242 248 252 245 247 252 253 258 258 257 257 259 256 253 252 251 252 254 255 257 261 263 265 268 271 275 278 282 284 287 288 291 290 288 287 288 290 293 290 293 292 289 288 290 290 292 296
243 242 241 244 247 250 252 255 257 257 256 258 256 257 255 251 253 254 255 257 259 262 265 267 269 270 274 277 281 282 283 286 289 286 282 284 289 289 292 288 287 285 286 286 290 293 295